FW4559 Weather Reports


time (UTC)temp
C
wind
direction
speed
KPH
gust
KPH
rain 1hr
cm
rain 24hr
cm
rain mn
cm
humidity
%
barometer
mb
20260903150055 27 101 0.0 4.8 0.00 0.00 0.00 65 1018.1
20260903145554 27 36 1.6 4.8 0.00 0.00 0.00 64 1018.0
20260903145053 27 102 0.0 4.8 0.00 0.00 0.00 67 1018.0
20260903144553 27 55 0.0 4.8 0.00 0.00 0.00 66 1018.1
20260903144055 27 347 0.0 3.2 0.00 0.00 0.00 68 1018.0
20260903143552 27 346 0.0 8.0 0.00 0.00 0.00 67 1018.1
20260903143107 27 359 3.2 8.0 0.00 0.00 0.00 63 1018.1
20260903142552 28 352 0.0 3.2 0.00 0.00 0.00 64 1018.0
20260903142051 28 244 0.0 1.6 0.00 0.00 0.00 67 1018.1
20260903141550 28 244 0.0 1.6 0.00 0.00 0.00 66 1018.0
20260903141050 27 244 0.0 1.6 0.00 0.00 0.00 71 1018.1
20260903140548 27 244 0.0 1.6 0.00 0.00 0.00 73 1018.0
20260903140046 27 244 0.0 1.6 0.00 0.00 0.00 72 1018.0
20260903135546 27 244 0.0 0.0 0.00 0.00 0.00 75 1018.0
20260903135044 27 244 0.0 1.6 0.00 0.00 0.00 76 1018.1
20260903134542 26 244 0.0 1.6 0.00 0.00 0.00 79 1018.0
20260903134040 25 244 0.0 1.6 0.00 0.00 0.00 82 1018.1
20260903133539 25 244 0.0 0.0 0.00 0.00 0.00 84 1018.1
20260903133038 25 244 0.0 0.0 0.00 0.00 0.00 86 1018.1
20260903132537 24 244 0.0 0.0 0.00 0.00 0.00 88 1018.1
20260903132035 23 244 0.0 0.0 0.00 0.00 0.00 91 1018.2
20260903131534 22 244 0.0 0.0 0.00 0.00 0.00 93 1018.2
20260903131032 22 244 0.0 0.0 0.00 0.00 0.00 96 1018.3
20260903130531 21 244 0.0 0.0 0.00 0.00 0.00 95 1018.3
20260903130028 21 244 0.0 0.0 0.00 0.00 0.00 95 1018.4
20260903125528 20 244 0.0 0.0 0.00 0.00 0.00 96 1018.4
20260903125028 20 244 0.0 0.0 0.00 0.00 0.00 96 1018.5
20260903124534 20 244 0.0 0.0 0.00 0.00 0.00 96 1018.4
20260903124025 20 244 0.0 0.0 0.00 0.00 0.00 96 1018.5
20260903123526 19 244 0.0 0.0 0.00 0.00 0.00 96 1018.4
20260903123036 18 244 0.0 0.0 0.00 0.00 0.00 96 1018.4
20260903122525 17 244 0.0 0.0 0.00 0.00 0.00 96 1018.4
20260903122025 17 244 0.0 0.0 0.00 0.00 0.00 96 1018.4
20260903121532 17 244 0.0 0.0 0.00 0.00 0.00 96 1018.3
20260903121027 17 244 0.0 0.0 0.00 0.00 0.00 96 1018.3
20260903120524 17 244 0.0 0.0 0.00 0.00 0.00 96 1018.2
20260903120024 17 244 0.0 0.0 0.00 0.00 0.00 96 1018.1
20260903115523 16 244 0.0 0.0 0.00 0.00 0.00 96 1018.1
20260903115022 16 244 0.0 0.0 0.00 0.00 0.00 96 1018.1
20260903114521 16 244 0.0 0.0 0.00 0.00 0.00 96 1017.9
20260903114020 16 244 0.0 0.0 0.00 0.00 0.00 96 1017.9
20260903113520 16 244 0.0 0.0 0.00 0.00 0.00 96 1017.8
20260903113033 16 244 0.0 0.0 0.00 0.00 0.00 96 1017.8
20260903112518 16 244 0.0 0.0 0.00 0.00 0.00 96 1017.7
20260903112018 16 244 0.0 0.0 0.00 0.00 0.00 96 1017.7
20260903111520 16 244 0.0 0.0 0.00 0.00 0.00 96 1017.6
20260903111017 16 244 0.0 0.0 0.00 0.00 0.00 96 1017.6
20260903110516 16 244 0.0 0.0 0.00 0.00 0.00 96 1017.6
20260903110016 16 244 0.0 0.0 0.00 0.00 0.00 96 1017.5
20260903105515 16 244 0.0 0.0 0.00 0.00 0.00 96 1017.5
20260903105015 16 244 0.0 0.0 0.00 0.00 0.00 96 1017.5
20260903104514 16 244 0.0 0.0 0.00 0.00 0.00 96 1017.4
20260903104012 17 244 0.0 0.0 0.00 0.00 0.00 96 1017.4
20260903103513 17 244 0.0 0.0 0.00 0.00 0.00 96 1017.4
20260903103013 17 244 0.0 0.0 0.00 0.00 0.00 96 1017.4
20260903102511 16 244 0.0 0.0 0.00 0.00 0.00 96 1017.3
20260903102016 16 244 0.0 0.0 0.00 0.00 0.00 96 1017.3
20260903101512 16 244 0.0 0.0 0.00 0.00 0.00 96 1017.3
20260903101012 16 244 0.0 0.0 0.00 0.00 0.00 96 1017.3
20260903100512 16 244 0.0 0.0 0.00 0.00 0.00 96 1017.4
20260903100019 16 244 0.0 0.0 0.00 0.00 0.00 96 1017.3
20260903095512 16 244 0.0 0.0 0.00 0.00 0.00 96 1017.4
20260903095014 17 244 0.0 0.0 0.00 0.00 0.00 96 1017.4
20260903094509 17 244 0.0 0.0 0.00 0.00 0.00 96 1017.4
20260903094012 17 244 0.0 0.0 0.00 0.00 0.00 96 1017.4
20260903093508 17 244 0.0 0.0 0.00 0.00 0.00 96 1017.4
20260903093011 17 244 0.0 0.0 0.00 0.00 0.00 96 1017.4
20260903092509 17 244 0.0 0.0 0.00 0.00 0.00 96 1017.4
20260903092007 17 244 0.0 0.0 0.00 0.00 0.00 96 1017.4
20260903091516 17 244 0.0 0.0 0.00 0.00 0.00 96 1017.3
20260903091005 17 244 0.0 0.0 0.00 0.00 0.00 96 1017.4
20260903090505 17 244 0.0 0.0 0.00 0.00 0.00 96 1017.3
20260903090004 17 244 0.0 0.0 0.00 0.00 0.00 96 1017.4
20260903085504 17 244 0.0 0.0 0.00 0.00 0.00 96 1017.3
20260903085004 17 244 0.0 0.0 0.00 0.00 0.00 96 1017.3
20260903084508 17 244 0.0 0.0 0.00 0.00 0.00 96 1017.2
20260903084003 17 244 0.0 0.0 0.00 0.00 0.00 96 1017.1
20260903083504 17 244 0.0 0.0 0.00 0.00 0.00 96 1017.2
20260903083003 17 244 0.0 0.0 0.00 0.00 0.00 96 1017.2
20260903082504 17 244 0.0 0.0 0.00 0.00 0.00 96 1017.0
20260903082002 17 244 0.0 0.0 0.00 0.00 0.00 96 1017.0
20260903081506 17 244 0.0 0.0 0.00 0.00 0.00 96 1017.1
20260903081001 17 244 0.0 1.6 0.00 0.00 0.00 96 1017.1
20260903080500 17 244 0.0 1.6 0.00 0.00 0.00 96 1017.1
20260903080001 17 244 0.0 0.0 0.00 0.00 0.00 96 1017.1
20260903075501 17 244 0.0 0.0 0.00 0.00 0.00 96 1017.1
20260903075000 17 244 0.0 1.6 0.00 0.00 0.00 96 1017.0
20260903074600 17 244 0.0 1.6 0.00 0.00 0.00 96 1016.9
20260903074100 17 103 0.0 0.0 0.00 0.00 0.00 96 1016.9
20260903073559 18 103 0.0 0.0 0.00 0.00 0.00 96 1016.9
20260903073057 18 103 0.0 0.0 0.00 0.00 0.00 96 1016.9
20260903072601 18 103 0.0 0.0 0.00 0.00 0.00 96 1016.8
20260903072056 18 103 0.0 0.0 0.00 0.00 0.00 96 1016.8
20260903071556 18 103 0.0 0.0 0.00 0.00 0.00 96 1016.8
20260903071055 18 103 0.0 0.0 0.00 0.00 0.00 96 1016.7
20260903070554 18 103 0.0 0.0 0.00 0.00 0.00 96 1016.8
20260903070054 18 103 0.0 0.0 0.00 0.00 0.00 96 1016.8
20260903065556 18 103 0.0 1.6 0.00 0.00 0.00 96 1016.7
20260903065053 18 103 0.0 3.2 0.00 0.00 0.00 96 1016.8
20260903064553 18 103 0.0 3.2 0.00 0.00 0.00 96 1016.8
20260903064052 18 117 0.0 0.0 0.00 0.00 0.00 96 1016.9
20260903063551 18 117 0.0 0.0 0.00 0.00 0.00 96 1016.8
20260903063051 18 117 0.0 0.0 0.00 0.00 0.00 96 1016.9
20260903062551 18 117 0.0 0.0 0.00 0.00 0.00 96 1016.8
20260903062051 18 117 0.0 0.0 0.00 0.00 0.00 96 1016.8
20260903061554 18 117 0.0 1.6 0.00 0.00 0.00 96 1016.9
20260903061049 18 117 0.0 1.6 0.00 0.00 0.00 96 1016.9
20260903060549 18 117 0.0 0.0 0.00 0.00 0.00 96 1017.0
20260903060049 18 117 0.0 0.0 0.00 0.00 0.00 96 1017.0
20260903055550 18 117 0.0 0.0 0.00 0.00 0.00 96 1017.0
20260903055049 18 117 0.0 0.0 0.00 0.00 0.00 96 1017.1
20260903054549 18 117 0.0 0.0 0.00 0.00 0.00 96 1017.1
20260903054048 18 117 0.0 0.0 0.00 0.00 0.00 96 1017.1
20260903053547 18 117 0.0 0.0 0.00 0.00 0.00 96 1017.1
20260903053047 18 117 0.0 0.0 0.00 0.00 0.00 96 1017.1
20260903052546 18 117 0.0 0.0 0.00 0.00 0.00 96 1017.3
20260903052046 18 117 0.0 0.0 0.00 0.00 0.00 96 1017.2
20260903051545 18 117 0.0 0.0 0.00 0.00 0.00 96 1017.3
20260903051044 18 117 0.0 0.0 0.00 0.00 0.00 96 1017.3
20260903050546 19 117 0.0 0.0 0.00 0.00 0.00 96 1017.4
20260903050043 19 117 0.0 0.0 0.00 0.00 0.00 95 1017.4
20260903045544 19 117 0.0 0.0 0.00 0.00 0.00 95 1017.4
20260903045043 19 117 0.0 0.0 0.00 0.00 0.00 95 1017.5
20260903044542 20 117 0.0 0.0 0.00 0.00 0.00 96 1017.4
20260903044044 20 117 0.0 0.0 0.00 0.00 0.00 96 1017.4
20260903043540 20 117 0.0 0.0 0.00 0.00 0.00 95 1017.4
20260903043044 19 117 0.0 0.0 0.00 0.00 0.00 96 1017.4
20260903042539 19 117 0.0 0.0 0.00 0.00 0.00 96 1017.4
20260903042040 19 117 0.0 0.0 0.00 0.00 0.00 95 1017.5
20260903041543 19 117 0.0 0.0 0.00 0.00 0.00 95 1017.6
20260903041036 19 117 0.0 0.0 0.00 0.00 0.00 95 1017.6
20260903040536 19 117 0.0 0.0 0.00 0.00 0.00 95 1017.6
20260903040035 20 117 0.0 0.0 0.00 0.00 0.00 95 1017.6
20260903035534 20 117 0.0 0.0 0.00 0.00 0.00 95 1017.6
20260903035034 20 117 0.0 0.0 0.00 0.00 0.00 95 1017.7
20260903034542 20 117 0.0 0.0 0.00 0.00 0.00 95 1017.7
20260903034034 20 117 0.0 0.0 0.00 0.00 0.00 95 1017.8
20260903033536 20 117 0.0 0.0 0.00 0.00 0.00 95 1017.8
20260903033033 20 117 0.0 0.0 0.00 0.00 0.00 95 1017.9
20260903032535 20 117 0.0 0.0 0.00 0.00 0.00 95 1018.1
20260903032034 20 117 0.0 0.0 0.00 0.00 0.00 95 1018.2
20260903031538 20 117 0.0 0.0 0.00 0.00 0.00 95 1018.1
20260903031034 20 117 0.0 0.0 0.00 0.00 0.00 95 1018.1
20260903030534 20 117 0.0 0.0 0.00 0.00 0.00 95 1018.1
20260903030033 20 117 0.0 0.0 0.00 0.00 0.00 94 1018.2
20260903025535 20 117 0.0 0.0 0.00 0.00 0.00 94 1018.3
20260903025031 20 117 0.0 0.0 0.00 0.00 0.00 94 1018.3
20260903024531 20 117 0.0 0.0 0.00 0.00 0.00 94 1018.3
20260903024033 20 117 0.0 0.0 0.00 0.00 0.00 94 1018.4
20260903023530 20 117 0.0 0.0 0.00 0.00 0.00 94 1018.3
20260903023030 20 117 0.0 0.0 0.00 0.00 0.00 94 1018.2
20260903022531 20 117 0.0 0.0 0.00 0.00 0.00 94 1018.2
20260903022029 21 117 0.0 0.0 0.00 0.00 0.00 94 1018.1
20260903021529 21 117 0.0 0.0 0.00 0.00 0.00 93 1018.1
20260903021028 21 117 0.0 0.0 0.00 0.00 0.00 93 1018.1
20260903020532 21 117 0.0 0.0 0.00 0.00 0.00 93 1018.1
20260903020046 21 117 0.0 0.0 0.00 0.00 0.00 93 1018.2
20260903015531 21 117 0.0 0.0 0.00 0.00 0.00 92 1018.1
20260903015027 21 117 0.0 0.0 0.00 0.00 0.00 92 1018.0
20260903014026 21 117 0.0 0.0 0.00 0.00 0.00 92 1018.0
20260903013529 21 117 0.0 0.0 0.00 0.00 0.00 92 1018.0
20260903013025 21 117 0.0 0.0 0.00 0.00 0.00 92 1017.9
20260903012525 21 117 0.0 0.0 0.00 0.00 0.00 92 1018.0
20260903012029 21 117 0.0 0.0 0.00 0.00 0.00 92 1017.9
20260903011525 21 117 0.0 0.0 0.00 0.00 0.00 91 1017.8
20260903011026 21 117 0.0 0.0 0.00 0.00 0.00 91 1017.7
20260903010525 22 117 0.0 0.0 0.00 0.00 0.00 91 1017.6
20260903010025 22 117 0.0 0.0 0.00 0.00 0.00 90 1017.5
20260903005526 22 117 0.0 0.0 0.00 0.00 0.00 90 1017.5
20260903005024 22 117 0.0 0.0 0.00 0.00 0.00 90 1017.4
20260903004526 22 117 0.0 0.0 0.00 0.00 0.00 90 1017.4
20260903004024 22 117 0.0 1.6 0.00 0.00 0.00 89 1017.3
20260903003524 22 117 0.0 1.6 0.00 0.00 0.00 89 1017.2
20260903003023 22 117 0.0 1.6 0.00 0.00 0.00 89 1017.2
20260903002523 23 117 0.0 1.6 0.00 0.00 0.00 88 1017.1
20260903002023 23 117 0.0 1.6 0.00 0.00 0.00 88 1017.1
20260903001523 23 117 0.0 1.6 0.00 0.00 0.00 87 1017.1
20260903001023 23 118 0.0 3.2 0.00 0.00 0.00 87 1017.1
20260903000523 23 117 0.0 3.2 0.00 0.00 0.00 86 1017.1
20260903000023 24 128 0.0 1.6 0.00 0.00 0.00 85 1017.2
20260902235523 24 140 0.0 1.6 0.00 0.00 0.00 83 1017.1
20260902235021 25 160 0.0 0.0 0.00 0.00 0.00 81 1017.0
20260902234522 25 160 0.0 0.0 0.00 0.00 0.00 79 1017.0
20260902234022 25 160 0.0 0.0 0.00 0.00 0.00 78 1017.0
20260902233521 26 160 0.0 0.0 0.00 0.00 0.00 77 1017.0
20260902233021 26 160 0.0 0.0 0.00 0.00 0.00 76 1017.0
20260902232521 26 160 0.0 0.0 0.00 0.00 0.00 75 1017.0
20260902232020 26 160 0.0 0.0 0.00 0.00 0.00 73 1017.0
20260902231521 26 203 0.0 0.0 0.00 0.00 0.00 73 1016.9
20260902231021 26 203 0.0 1.6 0.00 0.00 0.00 73 1016.9
20260902230520 26 203 0.0 3.2 0.00 0.00 0.00 72 1016.8
20260902230019 27 204 0.0 3.2 0.00 0.00 0.00 71 1016.8
20260902225519 27 195 0.0 3.2 0.00 0.00 0.00 71 1016.8
20260902225023 27 240 0.0 4.8 0.00 0.00 0.00 70 1016.8
20260902224520 27 140 0.0 4.8 0.00 0.00 0.00 69 1016.8
20260902224019 27 148 1.6 8.0 0.00 0.00 0.00 68 1016.9
20260902223519 27 138 1.6 8.0 0.00 0.00 0.00 69 1016.9
20260902223027 27 165 3.2 8.0 0.00 0.00 0.00 68 1016.8
20260902222518 27 167 3.2 8.0 0.00 0.00 0.00 67 1016.8
20260902222018 28 199 3.2 6.4 0.00 0.00 0.00 67 1016.9
20260902221520 28 203 1.6 8.0 0.00 0.00 0.00 66 1017.0
20260902221017 28 160 3.2 8.0 0.00 0.00 0.00 65 1017.0
20260902220517 29 188 1.6 8.0 0.00 0.00 0.00 65 1017.0
20260902220021 29 187 0.0 6.4 0.00 0.00 0.00 65 1017.0
20260902215517 29 185 0.0 4.8 0.00 0.00 0.00 64 1017.0
20260902215017 29 200 1.6 4.8 0.00 0.00 0.00 64 1016.9
20260902214517 29 141 0.0 4.8 0.00 0.00 0.00 64 1016.9
20260902214015 29 178 1.6 4.8 0.00 0.00 0.00 63 1017.0
20260902213515 29 162 0.0 4.8 0.00 0.00 0.00 64 1016.9
20260902213015 29 138 0.0 3.2 0.00 0.00 0.00 67 1016.9
20260902212516 29 120 1.6 0.0 0.00 0.00 0.00 65 1017.0
20260902212018 29 200 0.0 4.8 0.00 0.00 0.00 64 1016.9
20260902211515 29 194 0.0 6.4 0.00 0.00 0.00 65 1016.9
20260902211018 29 174 1.6 11.3 0.00 0.00 0.00 64 1016.9
20260902210516 29 184 4.8 11.3 0.00 0.00 0.00 64 1016.8
20260902210019 30 181 3.2 8.0 0.00 0.00 0.00 62 1016.9
20260902205518 30 142 3.2 8.0 0.00 0.00 0.00 62 1016.9
20260902205014 30 212 3.2 8.0 0.00 0.00 0.00 62 1016.9
20260902204513 30 176 4.8 8.0 0.00 0.00 0.00 61 1017.0
20260902204011 30 203 3.2 6.4 0.00 0.00 0.00 59 1017.0
20260902203514 31 164 3.2 6.4 0.00 0.00 0.00 58 1017.0
20260902203011 31 200 0.0 3.2 0.00 0.00 0.00 58 1017.0
20260902202511 31 250 1.6 3.2 0.00 0.00 0.00 57 1017.0
20260902202009 31 206 0.0 4.8 0.00 0.00 0.00 60 1017.1
20260902201517 30 146 0.0 6.4 0.00 0.00 0.00 58 1017.1
20260902201009 30 124 1.6 6.4 0.00 0.00 0.00 58 1017.2
20260902200508 30 121 3.2 4.8 0.00 0.00 0.00 56 1017.2
20260902200007 30 10 0.0 6.4 0.00 0.00 0.00 53 1017.3
20260902195507 31 349 3.2 6.4 0.00 0.00 0.00 48 1017.3
20260902195006 32 214 0.0 4.8 0.00 0.00 0.00 47 1017.2
20260902194506 32 236 0.0 6.4 0.00 0.00 0.00 49 1017.3
20260902194005 32 212 0.0 1.6 0.00 0.00 0.00 48 1017.5
20260902193504 32 114 0.0 4.8 0.00 0.00 0.00 49 1017.6
20260902193003 32 118 1.6 6.4 0.00 0.00 0.00 49 1017.6
20260902192503 32 196 1.6 6.4 0.00 0.00 0.00 46 1017.6
20260902192006 33 187 0.0 1.6 0.00 0.00 0.00 45 1017.7
20260902191501 33 238 0.0 1.6 0.00 0.00 0.00 44 1017.7
20260902191100 33 240 0.0 4.8 0.00 0.00 0.00 45 1017.9
20260902190558 32 165 0.0 4.8 0.00 0.00 0.00 49 1017.9
20260902190057 32 129 0.0 8.0 0.00 0.00 0.00 51 1017.8
20260902185555 32 203 1.6 8.0 0.00 0.00 0.00 48 1018.0
20260902185056 32 160 0.0 3.2 0.00 0.00 0.00 51 1018.1
20260902184557 31 201 0.0 3.2 0.00 0.00 0.00 48 1018.2
20260902184057 31 265 0.0 3.2 0.00 0.00 0.00 50 1018.2
20260902183553 31 347 0.0 6.4 0.00 0.00 0.00 53 1018.2
20260902183053 31 32 1.6 6.4 0.00 0.00 0.00 48 1018.2
20260902182554 31 219 0.0 4.8 0.00 0.00 0.00 51 1018.2
20260902182052 31 17 0.0 6.4 0.00 0.00 0.00 49 1018.3
20260902181555 31 238 0.0 6.4 0.00 0.00 0.00 47 1018.2
20260902181051 32 343 0.0 4.8 0.00 0.00 0.00 46 1018.3
20260902180550 32 165 0.0 4.8 0.00 0.00 0.00 49 1018.2
20260902180049 32 139 0.0 4.8 0.00 0.00 0.00 51 1018.2
20260902175549 31 225 0.0 4.8 0.00 0.00 0.00 52 1018.3
20260902175049 31 217 0.0 4.8 0.00 0.00 0.00 49 1018.4
20260902174548 31 224 0.0 6.4 0.00 0.00 0.00 50 1018.4
20260902174045 31 221 3.2 6.4 0.00 0.00 0.00 49 1018.6
20260902173545 31 212 0.0 6.4 0.00 0.00 0.00 52 1018.7
20260902173047 30 228 0.0 11.3 0.00 0.00 0.00 53 1018.7
20260902172544 30 153 4.8 11.3 0.00 0.00 0.00 49 1018.8
20260902172044 31 200 1.6 8.0 0.00 0.00 0.00 50 1018.8
20260902171559 30 115 0.0 4.8 0.00 0.00 0.00 51 1018.8
20260902171043 31 98 1.6 4.8 0.00 0.00 0.00 47 1019.0
20260902170542 31 162 0.0 3.2 0.00 0.00 0.00 49 1019.1
20260902170042 30 122 0.0 3.2 0.00 0.00 0.00 52 1019.2
20260902165542 29 98 0.0 4.8 0.00 0.00 0.00 56 1019.2
20260902165042 28 98 0.0 8.0 0.00 0.00 0.00 56 1019.2
20260902164542 28 14 3.2 8.0 0.00 0.00 0.00 55 1019.2
20260902164045 29 13 1.6 4.8 0.00 0.00 0.00 56 1019.3
20260902163540 29 51 0.0 4.8 0.00 0.00 0.00 55 1019.3
20260902163040 29 120 0.0 4.8 0.00 0.00 0.00 54 1019.3
20260902162539 29 84 0.0 4.8 0.00 0.00 0.00 54 1019.3
20260902162039 30 356 0.0 4.8 0.00 0.00 0.00 53 1019.3
20260902161540 30 20 1.6 4.8 0.00 0.00 0.00 50 1019.4
20260902161038 31 113 0.0 3.2 0.00 0.00 0.00 49 1019.4
20260902160538 31 134 0.0 0.0 0.00 0.00 0.00 52 1019.4
20260902160047 30 134 0.0 1.6 0.00 0.00 0.00 52 1019.4
20260902155537 30 149 0.0 1.6 0.00 0.00 0.00 54 1019.5
20260902155040 28 112 0.0 3.2 0.00 0.00 0.00 53 1019.4
20260902154536 28 86 0.0 3.2 0.00 0.00 0.00 54 1019.5
20260902154036 28 65 0.0 3.2 0.00 0.00 0.00 52 1019.5
20260902153539 28 90 0.0 3.2 0.00 0.00 0.00 55 1019.5
20260902153036 28 136 0.0 3.2 0.00 0.00 0.00 50 1019.5
20260902152536 30 95 0.0 3.2 0.00 0.00 0.00 52 1019.5
20260902152037 31 158 0.0 3.2 0.00 0.00 0.00 50 1019.5
20260902151534 31 158 0.0 0.0 0.00 0.00 0.00 55 1019.4
20260902151036 30 158 0.0 1.6 0.00 0.00 0.00 55 1019.4
20260902150531 30 158 0.0 1.6 0.00 0.00 0.00 56 1019.3